SCP
0 0 0 0 0 0 0 0 0 0 0 0 0 0 0 0 0 0 0 0 0 0 0 0 0 0 0 0 0 0 0 0 0 0 0 0 0 0 0 0 0 0 0 0
0 0 0 0 0 0 0 0 0 0 0 0 0 0 0 0 0 0 0 0 0 0 0 0 0 0 0 0 0 0 0 0 0 0 0 0 0 0 0 0 0 0 0 0
0 0 0 0 0 0 0 0 0 0 0 0 0 0 0 0 0 0 0 0 0 0 0 0 0 0 0 0 0 0 0 0 0 0 0 0 0 0 0 0 0 0 0 0
0 0 0 0 0 0 0 0 0 0 0 0 0 0 0 0 0 0 0 0 0 0 0 0 0 0 0 0 0 0 0 0 0 0 0 0 0 0 0 0 0 0 0 0
0 0 0 0 0 0 0 0 0 0 0 0 0 0 0 0 0 0 0 0 0 -0 0 0 0 0 0 0 0 0 0 0 0 0 0 0 0 0 0 0 0 0 0 0
0 0 0 0 0 0 0 0 0 0 0 0 0 0 0 0 0 0 0 -0 -0 -0 -0 -0 -0 -0 0 0 0 0 0 0 0 0 0 0 0 0 0 0 0 0 0 0
0 0 0 0 0 0 0 0 0 0 0 0 0 0 0 0 0 0 0 0 0 0 -0 -0 -0 -0 -0 -0 -0 -0 0 0 0 0 0 0 0 0 0 0 0 0 0 0
0 0 0 0 0 0 0 0 0 0 0 0 0 0 0 0 0 0 0 0 0 0 0 0 0 0 -0 -0 -0 -0 0 0 0 0 0 0 0 0 0 0 0 0 0 0
0 0 0 0 0 0 0 0 0 0 0 0 0 0 0 0 0 0 0 0 0 0 0 0 0 0 0 0 -0 -0 0 0 0 0 0 0 0 0 0 0 0 0 0 0
0 0 0 0 0 0 0 0 0 0 0 0 0 0 0 0 0 0 0 0 0 0 0 0 0 0 0 0 0 -0 0 0 0 0 0 0 0 0 0 0 0 0 0 0
0 0 0 0 0 0 0 0 0 0 0 0 0 0 0 0 0 0 0 0 0 0 0 0 0 0 0 0 0 -0 -0 -0 0 0 0 0 0 0 0 0 0 0 0 0
0 0 0 0 0 0 0 0 0 0 0 0 0 0 0 0 0 0 0 0 0 0 0 0 0 0 0 0 0 -0 0 0 0 0 0 0 0 0 0 0 0 0 0 0
0 0 0 0 0 0 0 0 0 0 0 0 0 0 0 0 0 0 0 0 0 0 0 0 0 0 0 0 0 0 0 0 0 0 0 0 0 0 0 0 0 0 0 0
0 0 0 0 0 0 0 0 0 0 0 0 0 0 0 0 0 0 0 0 0 0 0 0 0 0 0 0 0 0 0 0 0 0 0 0 0 0 0 0 0 0 0 0
0 0 0 0 0 0 0 0 0 0 0 0 0 0 0 0 0 0 0 0 0 0 0 0 0 0 0 0 0 0 0 0 0 0 0 0 0 0 0 0 0 0 0 0
0 0 0 0 0 0 0 0 0 0 0 0 0 0 0 0 0 0 0 0 0 0 0 0 0 0 0 0 0 0 0 0 0 0 0 0 0 0 0 0 0 0 0 0
0 0 0 0 0 0 0 0 0 0 0 0 0 0 0 0 0 0 0 0 0 0 0 0 0 0 0 0 0 0 0 0 0 0 0 0 0 0 0 0 0 0 0 0
0 0 0 0 0 0 0 0 0 0 0 0 0 0 0 0 0 0 0 0 0 0 0 0 0 0 0 0 0 0 0 0 0 0 0 0 0 0 0 0 0 0 0 0
0 0 0 0 0 0 0 0 0 0 0 0 0 0 0 0 0 0 0 0 0 0 0 0 0 0 0 0 0 0 0 0 0 0 0 0 0 0 0 0 0 0 0 0
0 0 0 0 0 0 0 0 0 0 0 0 0 0 0 0 0 0 0 0 0 0 0 0 0 0 0 0 0 0 0 0 0 0 0 0 0 0 0 0 0 0 0 0
0 0 0 0 0 0 0 0 0 0 0 0 0 0 0 0 0 0 0 0 0 0 0 0 0 0 0 0 0 0 0 0 0 0 0 0 0 0 0 0 0 0 0 0
0 0 0 0 0 0 0 0 0 0 0 0 0 0 0 0 0 0 0 0 0 0 0 0 0 0 0 0 0 0 0 0 0 0 0 0 0 0 0 0 0 0 0 0
0 0 0 0 0 0 0 0 0 0 0 0 0 0 0 0 0 0 0 0 0 0 0 0 0 0 0 0 0 0 0 0 0 0 0 0 0 0 0 0 0 0 0 0
0 0 0 0 0 0 0 0 0 0 0 0 0 0 0 0 0 0 0 0 0 0 0 0 0 0 0 0 0 0 0 0 0 0 0 0 0 0 0 0 0 0 0 0
0 0 0 0 0 0 0 0 0 0 0 0 0 0 0 0 0 0 0 0 0 0 0 0 0 0 0 0 0 0 0 0 0 0 0 0 0 0 0 0 0 0 0 0
0 0 0 0 0 0 0 0 0 0 0 0 0 0 0 0 0 0 0 0 0 0 0 0 0 0 0 0 0 0 0 0 0 0 0 0 0 0 0 0 0 0 0 0
0 0 0 0 0 0 0 0 0 0 0 0 0 0 0 0 0 0 0 0 0 0 0 0 0 0 0 0 0 0 0 0 0 0 0 0 0 0 0 0 0 0 0 0
Wind_Speed
14 13 10 10 12 13 16 17 17 19 21 10 7 9 10 11 13 16 18 18 18 17 17 18 18 18 17 16 15 15 15 14 13 12 12 13 13 13 13 15 16 15 15 15
9 11 11 16 18 21 22 18 15 16 4 7 4 6 8 7 11 13 14 15 15 15 16 17 18 18 18 18 17 16 16 15 14 12 11 11 12 12 13 14 14 14 17 17
7 6 6 11 13 12 7 2 2 1 2 2 4 9 8 4 7 11 12 11 12 13 14 14 15 15 17 16 16 15 15 15 15 13 12 11 10 11 13 14 14 16 17 17
4 2 11 8 1 1 4 4 4 4 3 5 6 7 7 4 4 8 9 9 9 10 12 13 14 14 15 15 14 14 13 14 14 14 13 11 9 10 11 10 13 15 16 17
4 7 10 2 2 2 4 5 5 4 5 7 7 6 5 4 4 6 7 7 8 8 10 11 12 13 15 16 15 15 14 14 15 15 15 12 10 10 9 9 11 12 12 14
6 6 9 6 5 5 3 5 6 4 6 8 5 6 6 5 6 7 8 7 8 8 8 10 11 11 13 15 15 16 16 17 16 15 15 14 12 9 7 8 9 9 10 12
7 7 10 6 4 1 2 6 6 7 9 9 9 10 10 10 10 9 9 10 9 8 9 9 9 10 13 15 15 15 16 17 17 15 15 14 11 7 6 6 7 8 8 7
4 4 10 4 1 3 8 6 6 9 10 12 13 13 12 13 13 12 11 12 10 9 12 12 9 8 13 15 13 14 16 17 18 17 14 11 11 8 6 7 8 8 7 6
9 10 7 5 8 9 7 8 10 11 12 12 13 13 13 13 14 14 14 14 10 10 14 16 10 7 14 15 12 14 16 18 18 18 15 11 11 10 7 8 8 8 8 9
8 13 13 14 13 12 11 13 13 13 12 10 12 13 14 13 14 15 14 13 11 11 14 18 13 10 11 13 11 13 17 18 17 17 17 13 10 10 9 10 10 10 11 11
13 15 12 13 15 14 13 12 11 10 8 8 8 13 13 13 14 15 16 15 11 11 15 19 17 15 11 9 10 15 18 18 16 15 16 14 11 11 12 12 12 12 11 11
15 15 12 11 9 8 8 9 7 6 6 5 6 11 13 15 16 16 16 15 15 15 17 18 17 18 13 9 10 15 18 17 13 12 13 13 12 11 20 20 21 25 21 16
21 20 16 15 11 4 3 3 5 5 7 10 11 11 13 16 17 16 17 17 18 19 19 19 19 21 15 10 12 16 18 18 14 13 13 13 12 11 10 12 22 25 26 25
11 9 11 6 3 5 5 5 7 8 9 10 11 11 11 15 17 18 19 17 18 20 20 20 22 22 16 13 15 17 18 18 16 14 13 13 13 12 10 9 8 10 17 25
3 3 2 4 4 4 5 7 10 11 11 11 10 11 14 17 19 20 19 19 21 21 21 20 22 21 15 15 17 18 17 14 13 13 13 14 14 12 9 9 9 7 6 11
2 2 3 3 4 5 6 8 10 13 13 15 15 15 16 18 20 20 19 18 20 22 20 20 21 20 17 17 18 16 15 19 18 14 13 13 13 11 8 8 8 8 8 8
1 2 3 4 6 8 8 9 11 14 15 16 16 17 17 18 18 18 17 16 18 19 20 20 20 18 17 17 17 14 13 15 18 16 14 13 11 9 7 7 7 7 7 9
2 2 4 6 8 11 12 11 11 13 14 15 16 16 17 17 19 19 18 18 18 17 17 16 17 17 16 16 15 13 13 12 12 12 11 10 8 6 6 6 6 6 4 8
3 4 6 8 9 10 12 12 13 13 13 13 15 16 16 16 16 17 17 17 16 16 16 16 22 19 16 17 17 11 11 10 9 7 4 3 4 4 4 4 4 4 4 3
5 6 7 8 8 9 11 12 12 12 11 12 14 14 14 14 14 15 14 13 10 13 18 19 16 13 13 14 15 9 8 7 6 5 4 3 3 3 3 4 5 7 8 9
6 7 8 9 9 9 10 11 11 12 12 11 12 13 14 14 13 12 12 12 12 15 17 18 13 11 11 12 12 9 8 8 7 7 6 6 6 6 7 8 9 9 9 9
6 7 9 9 9 10 9 8 9 11 11 10 10 10 12 12 12 11 9 8 13 17 14 11 11 13 14 13 9 9 10 9 8 8 8 8 8 8 9 10 9 9 9 8
7 7 8 9 9 9 9 9 9 8 8 8 8 9 9 9 8 9 11 10 11 16 12 10 15 17 16 10 9 10 11 11 10 9 9 9 8 8 8 9 8 8 7 7
7 7 8 8 7 7 8 7 7 6 6 6 5 6 7 7 5 4 7 11 14 14 10 13 18 18 14 9 9 10 10 10 10 9 9 9 8 8 8 8 7 7 7 8
7 7 6 7 6 5 6 6 6 5 5 4 4 5 5 4 5 7 7 9 13 12 9 13 17 16 11 9 9 9 9 9 9 8 9 8 8 8 8 8 7 7 7 7
5 5 5 5 5 5 5 4 4 4 4 4 3 4 4 4 5 5 6 7 9 10 9 8 10 10 9 9 9 9 8 8 8 8 8 7 8 8 7 7 8 7 6 6
5 4 4 5 5 6 5 5 4 4 4 4 4 4 5 5 5 6 6 7 7 7 7 8 8 8 9 9 9 9 8 8 8 8 7 7 7 7 7 7 6 5 5 5
Wind_Direction
271 279 281 282 283 280 271 268 270 276 280 312 21 10 359 9 12 9 3 358 355 349 346 344 344 344 342 340 341 337 334 326 304 279 256 242 231 220 211 208 207 203 203 201
272 269 269 272 268 267 271 270 265 269 274 37 359 356 354 3 5 360 352 346 342 340 340 339 338 336 336 336 336 333 330 327 321 306 281 257 242 227 216 211 206 200 203 201
260 276 307 258 243 246 245 334 337 255 106 311 333 342 334 321 345 342 338 334 331 330 331 329 329 329 329 328 327 325 323 323 326 320 304 282 258 235 223 214 205 206 206 204
265 334 246 242 111 121 144 125 111 120 208 250 266 278 267 241 317 321 320 317 314 317 320 319 319 322 324 323 321 319 317 320 324 321 311 296 272 247 233 218 212 211 209 208
207 233 261 202 208 178 192 205 184 192 245 258 273 284 248 226 288 288 286 290 295 296 300 305 309 317 321 320 320 320 319 321 323 320 311 300 278 254 235 222 220 217 211 208
212 218 238 217 207 234 179 248 213 228 263 263 277 288 273 273 286 289 284 283 284 284 286 292 301 313 314 314 317 319 321 320 317 313 304 294 279 259 235 223 224 217 218 212
224 234 260 238 220 93 157 255 233 257 260 248 238 244 264 285 291 282 281 284 283 281 285 289 298 306 305 306 309 313 316 314 311 305 298 291 281 259 231 217 213 212 216 208
170 205 259 229 237 222 230 246 257 263 256 249 247 254 265 275 280 283 284 285 284 288 293 294 293 293 296 297 305 311 311 309 308 305 298 289 275 256 231 212 208 207 204 200
194 218 241 234 248 256 256 272 277 269 261 252 255 262 269 275 280 283 285 287 291 292 293 294 292 284 292 300 310 310 308 306 305 304 295 280 266 253 230 215 213 209 204 205
249 258 260 261 264 269 270 269 270 266 261 249 251 265 276 281 284 287 289 288 289 286 287 290 294 291 289 300 308 306 302 300 299 298 294 280 259 245 232 219 215 211 208 208
248 260 260 256 256 261 264 260 259 258 250 247 259 276 284 287 286 287 288 289 286 283 285 288 295 295 296 301 304 300 296 293 292 288 286 281 261 243 236 229 221 215 214 206
251 255 252 257 252 255 265 271 275 281 288 294 285 285 288 284 285 287 288 292 293 292 291 293 296 295 297 295 289 290 291 290 287 286 286 282 272 260 247 240 237 232 225 216
253 262 265 269 279 313 320 349 353 327 304 298 293 288 288 289 291 293 294 297 297 297 297 298 297 295 297 291 280 278 279 282 282 280 279 279 271 260 256 250 243 238 232 225
256 269 269 284 352 29 13 346 325 304 295 291 295 300 298 296 296 296 297 301 301 299 297 296 294 292 294 284 279 277 277 277 275 274 272 271 267 257 245 237 238 236 231 229
37 29 344 11 2 358 350 334 319 309 311 309 310 309 307 303 300 300 302 302 297 293 292 291 289 290 290 283 281 280 278 276 272 270 267 265 264 254 235 225 230 233 217 224
30 50 19 339 325 333 336 328 314 309 314 313 313 310 307 303 299 298 297 295 294 294 294 291 290 291 289 286 284 281 276 272 271 267 264 261 257 246 224 214 219 224 218 211
44 350 348 325 317 318 317 313 305 304 307 307 307 308 306 303 301 301 300 298 295 295 295 293 293 293 290 287 284 281 277 272 267 264 258 254 247 233 213 206 214 219 216 208
45 315 298 291 298 305 306 306 302 300 300 301 304 305 305 305 306 308 310 309 306 302 300 298 298 298 296 294 290 285 279 275 270 264 256 244 228 209 196 200 207 207 192 206
332 307 302 299 301 299 298 299 297 296 298 300 301 301 301 302 306 309 311 313 313 315 316 313 313 315 307 302 300 293 292 290 289 283 263 199 172 164 172 181 178 164 140 114
310 304 298 294 290 286 288 289 291 293 292 293 295 299 303 307 311 312 314 314 315 321 319 318 317 316 316 316 321 318 320 326 340 358 27 57 80 95 107 110 100 90 87 88
301 297 297 296 293 285 279 282 286 288 292 293 296 302 308 312 315 317 323 324 327 329 326 327 329 331 332 334 335 341 349 359 10 20 32 45 57 65 70 74 76 80 84 85
297 294 294 292 291 289 283 279 278 282 288 293 299 307 313 318 324 326 322 320 325 329 332 334 336 348 353 352 354 360 6 12 18 25 33 41 51 59 62 68 73 76 80 84
285 284 286 285 283 285 287 283 277 280 289 299 308 317 319 319 324 331 331 331 333 339 344 341 351 4 8 6 7 11 15 18 22 26 32 39 47 56 63 69 73 79 84 88
287 285 281 281 283 283 285 287 287 288 293 299 307 316 318 322 324 324 321 328 340 347 349 353 7 15 17 16 17 19 21 21 23 26 32 38 44 49 54 60 66 70 77 83
285 284 285 294 296 290 289 299 305 307 311 315 321 327 327 329 324 322 328 336 346 355 355 360 10 15 18 20 25 27 27 29 33 34 37 42 45 49 52 56 61 66 70 74
293 295 296 300 309 314 315 317 320 325 329 333 330 334 339 339 336 335 339 345 352 0 3 0 4 11 16 21 26 29 31 31 36 41 44 49 53 57 60 64 66 70 73 76
324 329 334 339 340 335 331 333 338 341 342 343 339 345 353 354 354 354 356 360 2 5 6 5 8 12 16 20 25 29 31 33 35 37 39 43 46 50 53 58 60 63 65 67